Theta_e
352 353 355 355 355 355 354 354 353 353 356 348 342 343 345 347 348 349 349 347 346 345 347 347 345 346 346 345 346 347 347 348 349 346 345 347 346 346 349 350 348 344 343 342 342 340 340 340 340 341 342 343 344 344 343 341 339 339 339 339 339 339 341 341 341 340 340 340 340 339 339 342 342 344 344 343 344 343 343 345 345 346 346 345 344 345 343 341 339 338 338 338 337 336 339 342 343
352 353 354 355 355 355 352 354 354 352 353 345 342 345 346 348 348 347 347 347 345 343 345 346 345 346 345 345 345 346 347 347 348 348 347 347 348 348 348 349 350 345 341 342 342 341 341 340 339 340 342 344 345 345 344 343 342 341 341 341 340 341 342 342 341 339 337 336 336 335 335 340 342 344 343 342 343 343 343 344 345 345 346 345 345 345 344 342 340 338 337 337 336 334 336 339 341
353 353 353 355 355 355 353 353 352 349 348 343 345 350 349 348 346 347 347 346 344 344 347 347 347 345 344 344 344 345 346 346 346 346 347 348 349 348 347 348 350 344 341 344 343 341 341 340 340 339 340 342 344 345 345 343 343 342 342 341 340 341 343 341 339 337 335 335 336 335 334 339 343 343 343 342 343 345 346 346 345 345 345 344 345 344 344 343 341 340 339 338 336 332 331 335 339
353 354 354 355 356 355 355 354 353 350 346 342 345 350 348 347 345 346 346 345 345 346 348 347 346 344 344 343 344 346 345 345 345 346 347 347 349 347 347 347 348 345 343 347 345 341 340 340 340 339 339 340 342 343 343 343 342 342 342 342 341 342 342 340 337 337 338 339 340 340 339 341 343 342 342 342 343 345 346 346 346 345 344 343 345 344 343 343 342 342 341 339 336 331 328 331 335
353 355 355 356 357 355 355 355 353 352 347 344 346 349 346 346 345 346 346 346 346 346 347 345 345 344 344 343 343 344 344 344 344 345 346 347 348 347 348 348 348 347 346 348 346 342 339 339 340 340 340 340 341 342 342 343 342 342 343 342 341 342 342 339 337 339 341 342 343 344 343 343 343 342 342 343 343 344 345 346 345 345 344 344 345 344 343 343 343 343 342 339 333 327 325 327 330
355 355 355 355 356 356 355 351 349 350 351 350 348 348 346 345 346 347 347 346 346 346 345 344 344 344 345 344 344 344 344 344 344 344 345 346 347 347 347 347 348 347 347 348 346 341 338 339 340 340 341 341 341 342 343 344 343 343 344 343 341 342 343 340 340 340 341 343 344 345 344 344 344 342 342 343 344 344 345 345 345 344 344 344 344 343 344 343 343 342 341 336 328 323 321 323 326
355 355 355 356 356 356 355 348 347 351 352 350 348 347 347 346 347 347 347 345 345 345 343 343 343 343 344 344 345 344 345 345 344 345 346 346 346 347 346 346 347 347 347 346 344 340 339 340 339 340 341 341 341 343 344 344 344 344 343 343 342 343 344 341 340 341 342 344 344 344 343 343 344 343 342 343 343 344 344 345 344 344 344 345 344 344 343 343 343 342 341 334 324 321 320 320 323
355 355 354 356 357 355 354 349 350 353 351 349 348 347 347 347 348 348 347 345 345 344 344 344 343 344 344 345 346 345 346 345 344 345 346 346 347 348 346 346 347 349 348 344 343 341 340 339 340 340 341 341 341 342 343 345 346 343 342 343 344 344 343 341 340 341 343 343 343 343 342 342 342 343 343 343 344 343 343 343 342 342 343 344 344 344 344 343 343 343 341 336 325 321 320 319 321
355 355 355 357 361 357 351 349 352 353 352 350 348 348 348 348 349 349 347 346 345 345 344 344 344 345 345 346 346 346 346 345 345 345 346 347 348 347 346 346 346 348 347 345 344 339 337 340 341 342 342 341 340 342 343 344 345 343 342 343 344 343 343 343 342 341 342 343 343 342 342 342 342 343 344 344 344 343 342 342 341 341 341 342 343 343 344 343 343 341 338 332 324 321 321 320 320
354 356 358 359 361 356 346 348 353 352 353 351 350 351 350 350 350 350 348 347 347 346 345 344 344 344 345 346 346 345 344 344 345 346 346 347 347 347 346 346 346 346 345 345 343 337 337 341 343 343 343 341 341 342 342 342 343 343 343 343 343 343 344 344 343 341 342 343 342 342 342 342 343 344 344 344 343 343 342 341 341 341 340 341 342 342 342 341 339 335 330 326 322 321 321 320 320
356 356 356 359 360 354 344 346 352 353 355 353 353 353 351 352 350 351 350 348 346 344 344 343 343 345 346 346 345 344 344 344 345 346 346 346 346 347 347 346 345 345 345 344 343 340 340 341 342 343 342 341 342 342 342 342 342 342 343 343 343 343 344 344 343 342 341 342 342 342 342 343 344 344 343 342 342 342 342 342 342 340 340 340 340 341 340 338 334 330 327 326 323 322 321 321 321
358 358 358 360 358 354 347 346 353 354 354 353 355 354 352 353 350 351 350 347 345 344 343 343 344 344 345 344 345 344 344 345 345 345 345 345 346 345 345 344 345 345 345 345 344 343 341 341 341 342 342 341 341 341 341 342 342 343 343 344 344 343 343 343 344 343 341 341 342 344 344 344 344 343 342 341 341 341 342 342 342 341 340 340 340 340 338 335 332 330 330 329 326 322 321 321 322
358 360 359 359 356 354 349 348 353 353 354 353 354 354 352 353 352 351 348 348 346 345 342 342 344 344 344 344 344 344 345 345 344 344 343 344 345 345 345 345 346 346 344 344 344 344 342 342 342 342 342 342 341 342 342 342 343 343 344 344 344 343 343 344 344 343 343 341 342 345 345 343 343 343 342 342 341 341 342 342 342 341 340 340 340 340 336 333 331 332 333 331 328 324 322 321 322
357 359 357 357 354 352 347 348 351 349 351 353 353 354 353 353 352 350 348 348 346 343 342 342 343 343 344 343 344 345 345 344 343 343 342 344 345 346 347 347 347 346 346 345 344 344 343 343 343 342 342 342 342 342 342 342 343 343 343 344 344 343 344 344 343 343 343 343 344 345 345 344 343 343 342 342 342 341 342 342 341 340 340 340 340 339 335 331 332 334 334 333 330 325 323 322 322
356 357 356 357 353 350 345 347 351 349 350 352 354 354 351 351 351 350 349 348 344 342 343 342 342 341 342 344 345 345 344 343 342 341 342 345 347 348 348 348 347 347 349 348 345 345 345 344 345 344 343 343 342 342 343 343 342 343 344 345 344 344 344 343 342 342 343 344 345 344 344 344 343 343 343 342 342 341 341 340 339 339 339 340 340 338 333 332 334 334 334 334 331 326 325 324 323
356 356 358 360 354 351 346 347 352 349 350 352 353 352 352 352 352 351 348 346 344 344 343 341 342 341 341 344 345 345 344 343 341 341 344 347 348 348 348 348 347 347 349 348 346 345 345 345 346 345 344 345 344 343 343 344 343 343 344 345 344 343 342 342 342 343 343 344 345 343 343 344 343 344 344 343 342 341 340 340 339 338 336 337 340 337 333 333 334 333 331 330 330 332 336 335 333
355 357 359 358 358 356 351 350 350 349 350 352 352 352 354 353 352 350 347 345 344 343 342 341 342 341 343 345 346 344 343 342 341 342 346 347 348 348 347 348 347 347 348 348 347 345 345 345 346 345 345 345 344 344 344 344 344 344 345 344 343 342 342 343 343 343 344 344 345 344 343 343 343 343 343 342 341 341 339 338 336 333 331 334 338 335 332 333 334 334 335 336 336 340 344 344 343
355 359 359 357 361 360 355 354 349 350 351 350 351 350 353 351 349 348 346 345 343 343 342 342 343 343 345 345 344 343 342 341 342 344 346 348 348 347 347 348 347 347 349 349 348 347 345 344 344 344 344 344 344 344 344 344 344 344 344 343 342 342 343 343 343 343 343 344 344 343 343 343 342 342 341 341 341 341 337 333 330 330 332 336 337 333 331 333 337 340 342 343 343 344 346 346 346
356 358 357 356 360 358 357 357 348 350 351 349 350 348 350 349 348 349 346 345 343 342 343 344 344 344 344 343 343 341 340 341 343 345 346 347 347 347 347 347 347 347 348 348 348 348 345 344 344 343 344 344 344 344 344 344 344 344 342 341 341 342 342 342 343 343 343 343 343 343 343 342 341 341 341 341 340 337 332 328 329 332 334 337 336 332 331 336 341 343 344 345 345 345 346 347 347
355 355 355 354 355 357 357 356 350 348 350 349 349 347 349 347 348 349 345 345 344 343 344 344 344 343 343 342 341 340 341 342 344 346 346 347 347 347 347 347 348 348 347 347 348 348 347 347 346 344 344 344 344 344 344 343 343 343 341 340 340 340 340 341 341 342 342 342 342 342 341 340 339 340 340 339 335 329 328 329 332 333 333 335 334 332 335 340 343 343 344 345 346 346 346 347 346
354 354 357 355 356 360 356 353 351 349 351 349 348 347 348 348 348 347 346 345 344 343 343 343 343 342 341 340 340 341 343 344 345 346 346 347 347 347 347 347 348 348 348 348 348 349 348 347 346 344 344 344 344 343 343 342 342 343 340 340 340 339 339 340 340 341 342 341 340 339 339 339 339 339 337 333 328 328 331 333 333 333 333 333 334 335 340 343 344 345 345 345 345 345 346 347 346
355 354 355 355 356 360 357 354 350 349 351 350 348 347 348 349 348 346 347 346 345 344 342 342 342 341 341 341 342 343 345 345 346 345 346 347 346 347 347 347 348 348 349 348 347 348 347 347 346 345 345 344 344 343 342 342 342 341 340 340 340 339 339 340 340 340 339 338 337 336 335 336 337 337 332 327 328 331 335 336 334 335 338 339 340 343 344 345 345 345 345 346 344 342 344 346 347
354 354 354 355 356 358 358 358 352 349 352 351 350 348 348 350 347 347 348 347 345 344 342 342 341 341 341 342 344 345 345 346 345 345 345 346 346 348 347 348 349 349 349 348 347 348 348 348 346 345 345 344 344 343 342 342 342 340 340 341 340 339 339 339 339 338 335 334 333 332 332 334 336 336 332 331 335 338 341 342 341 343 345 345 345 345 346 345 345 345 346 347 345 343 343 344 345
354 354 355 357 358 358 360 359 353 350 352 351 349 348 350 349 348 348 347 346 344 343 342 341 341 342 343 344 345 345 345 346 345 345 344 346 347 347 349 348 349 349 349 348 347 349 349 348 346 345 345 344 343 343 343 343 342 340 340 340 340 339 339 339 338 336 333 332 331 331 333 335 337 337 336 338 340 341 343 344 345 347 348 346 345 346 346 345 343 344 346 347 345 343 344 344 343
353 354 356 358 358 359 360 357 354 352 351 350 349 350 351 348 347 348 347 345 344 344 342 341 343 343 344 345 345 345 346 346 345 344 344 345 347 347 349 350 349 350 350 349 348 349 350 347 346 345 345 344 343 344 343 343 342 340 340 341 340 337 338 339 338 338 336 332 331 334 336 337 338 339 340 342 341 342 343 344 345 347 347 346 345 345 346 345 345 347 348 348 346 344 345 345 343
353 354 357 359 358 359 359 357 355 352 351 352 351 351 351 347 346 345 346 345 344 344 342 343 343 343 345 345 345 346 345 345 345 345 344 345 347 348 349 350 350 350 350 350 349 349 349 347 346 346 346 345 344 344 344 343 342 340 340 341 340 338 338 339 338 340 339 335 335 339 341 340 342 343 344 343 342 343 344 345 346 346 347 346 346 346 347 347 347 348 349 348 348 346 346 346 344
355 354 356 359 357 359 358 358 358 355 353 352 352 352 350 347 346 344 345 345 344 343 343 344 344 344 345 345 345 346 345 345 345 345 345 345 347 348 349 349 349 349 349 350 350 349 348 348 347 347 347 346 345 346 345 343 341 340 341 341 341 341 339 337 337 339 340 341 342 344 344 343 344 344 343 342 342 345 346 347 347 347 348 347 347 347 348 349 349 349 349 349 349 347 346 345 342
355 353 356 358 357 358 357 357 360 358 354 351 352 355 351 348 348 345 344 345 344 344 344 344 344 345 345 345 346 345 345 344 345 345 344 345 347 348 349 348 348 349 349 349 350 350 350 350 348 347 347 346 345 346 346 344 342 342 344 342 339 339 338 336 338 340 341 343 345 346 344 343 343 342 343 344 346 348 349 348 348 348 348 347 347 348 347 348 348 346 347 349 350 347 347 346 341
355 354 355 356 356 357 355 356 358 357 356 353 352 354 351 350 350 346 344 345 344 344 344 344 344 345 345 346 346 345 345 345 345 345 344 345 346 348 348 348 348 348 349 349 349 350 351 351 349 349 347 347 346 346 347 345 345 346 347 345 342 339 338 339 342 344 345 345 346 345 344 343 342 342 346 348 349 350 349 349 349 348 348 348 347 347 347 347 346 344 345 349 350 348 347 346 342
355 355 355 356 357 357 355 355 355 354 357 356 352 350 349 352 351 345 344 345 345 344 344 345 344 345 345 346 347 346 345 345 345 344 344 345 346 348 347 347 348 348 349 349 349 349 349 350 350 350 349 348 348 348 348 346 347 348 347 346 346 343 341 342 345 347 347 346 346 345 344 344 343 345 350 350 350 350 349 348 348 349 349 349 346 345 346 347 347 347 347 348 348 348 346 346 342
354 353 354 356 354 355 355 354 355 355 357 358 354 349 349 352 351 346 345 345 344 344 344 345 345 345 346 346 347 347 346 346 346 345 345 345 346 348 347 347 348 347 348 349 349 349 349 350 350 349 349 350 349 349 349 347 347 347 347 347 347 346 345 346 347 346 343 341 343 344 344 344 343 346 349 350 349 350 350 349 350 349 348 348 346 346 347 346 347 348 348 348 348 347 345 345 344
352 346 344 350 352 354 357 354 355 356 356 359 354 348 350 352 350 346 345 344 345 345 345 345 345 345 345 346 347 346 346 347 347 346 345 345 346 348 348 348 347 347 348 348 348 349 349 349 349 349 350 350 350 349 348 348 347 346 347 348 347 346 345 345 346 345 342 340 340 341 343 343 342 344 347 348 348 350 350 351 351 349 348 349 346 346 348 346 347 348 349 350 349 347 345 344 343
349 344 340 345 349 352 356 354 355 355 354 357 354 350 352 352 349 348 345 344 345 344 345 345 344 345 345 346 347 346 347 348 347 346 345 345 345 347 348 347 346 347 347 347 348 348 349 349 349 349 349 350 350 349 348 348 347 347 348 348 347 346 345 345 345 345 345 344 340 339 341 341 341 343 346 348 348 348 349 351 352 350 351 350 345 346 348 347 347 347 348 350 349 348 346 343 342
344 346 344 346 349 350 353 354 355 354 353 355 353 353 354 351 350 348 345 344 344 344 345 345 344 344 345 346 347 346 347 348 348 347 346 345 345 347 348 346 347 348 347 347 347 347 348 348 348 349 349 349 347 347 349 349 348 348 347 348 347 346 345 345 345 344 345 346 342 338 340 340 341 342 345 348 348 348 348 351 352 352 353 350 346 349 350 348 349 347 345 347 349 349 347 345 345
341 343 344 345 347 347 351 354 355 354 353 355 353 351 353 352 350 348 347 346 344 344 344 344 344 344 344 345 346 346 347 348 348 347 346 346 346 347 347 347 347 347 346 346 346 347 347 347 348 349 350 347 342 343 348 348 348 348 347 348 347 346 346 344 345 345 345 348 344 338 340 341 341 342 343 346 347 347 348 351 352 351 351 348 349 352 351 349 350 350 348 345 347 349 348 347 345
345 346 345 343 344 347 352 354 354 354 353 355 352 349 354 355 351 349 347 346 345 344 343 344 344 344 344 345 346 346 347 349 349 348 347 346 346 347 347 347 347 346 346 346 346 346 347 348 349 349 350 346 339 342 346 347 348 348 347 348 347 346 346 345 346 346 347 349 344 339 342 343 342 342 341 343 347 348 348 350 351 350 350 350 352 353 351 351 348 349 350 345 343 346 347 346 344
348 349 346 346 346 348 354 353 353 354 353 353 351 349 356 356 354 351 348 347 346 345 344 345 344 344 344 344 346 346 346 348 349 349 348 346 346 346 347 347 347 346 347 347 346 347 348 349 349 350 351 344 339 344 347 347 348 347 347 348 347 346 346 347 347 347 348 350 346 341 343 344 343 343 341 341 345 348 348 348 349 349 349 351 354 352 351 350 346 346 347 344 344 345 346 346 345
347 348 345 344 346 350 353 352 352 352 352 353 352 351 356 356 354 353 350 349 348 347 346 345 345 344 343 344 345 346 347 347 348 349 348 347 347 346 347 347 347 348 348 347 347 348 349 349 349 351 350 345 343 347 348 347 347 346 347 347 347 347 347 348 348 348 349 349 346 343 344 343 343 343 342 341 343 347 347 346 347 349 350 349 349 348 347 348 346 345 345 346 349 348 346 347 345
344 346 342 340 344 351 352 352 352 351 352 354 353 353 355 355 353 351 351 351 350 349 349 346 345 345 342 343 345 346 347 347 348 350 348 347 347 346 347 347 348 348 348 348 348 349 349 348 349 351 350 348 348 348 348 347 347 346 346 345 346 347 347 348 348 348 349 348 346 344 343 343 342 341 342 343 342 345 347 346 346 348 347 345 345 344 345 345 346 345 345 347 349 348 347 347 344
343 343 339 339 345 348 346 350 354 352 353 353 353 353 354 355 353 351 354 352 349 348 348 349 346 344 344 343 345 346 346 347 348 349 349 348 347 347 347 347 349 349 348 349 348 349 349 346 347 350 349 349 349 348 348 348 346 346 345 345 345 346 347 349 349 349 349 349 348 345 342 342 342 342 343 346 345 344 346 347 347 347 345 344 345 345 346 346 346 348 348 348 348 347 346 345 344
342 343 339 340 345 344 345 352 355 354 353 354 354 352 352 355 353 353 355 352 350 350 350 350 347 344 344 342 344 345 346 347 348 348 349 349 348 347 348 348 348 349 348 349 348 349 349 345 344 347 347 348 349 348 348 348 347 347 346 345 346 346 348 350 350 351 351 350 348 345 343 342 344 344 345 349 349 344 345 347 347 346 345 346 348 349 350 350 349 350 348 347 349 347 344 345 345
338 342 340 341 344 345 349 353 352 349 349 353 354 347 346 353 354 353 353 353 351 350 351 351 348 346 344 343 344 345 346 348 347 348 348 349 349 347 348 348 348 349 349 350 349 348 349 346 343 343 344 348 348 347 350 349 346 348 347 347 347 348 350 351 350 351 350 349 348 347 347 346 347 347 346 347 348 344 343 345 345 345 344 346 350 351 351 351 351 352 348 345 350 350 347 347 346
331 338 340 340 343 345 348 350 346 344 347 352 352 345 343 348 352 352 351 353 351 349 352 351 348 347 345 343 344 344 346 348 347 347 347 349 349 348 348 348 348 349 349 349 348 348 350 347 342 339 339 344 344 344 348 346 342 345 348 349 349 349 350 351 349 348 349 349 348 348 350 349 349 351 348 346 347 345 343 343 344 346 346 346 349 351 351 351 353 355 350 344 349 351 350 350 347
327 337 340 339 342 344 346 347 344 343 347 351 351 347 344 343 347 351 351 351 352 351 352 351 349 348 345 344 344 344 345 348 348 347 347 348 349 349 348 348 348 348 348 348 348 349 351 348 343 338 337 340 339 337 341 339 337 341 346 350 350 350 350 349 348 348 347 348 348 349 351 349 349 351 352 350 347 344 343 343 343 345 348 350 350 351 353 353 354 354 349 343 345 348 348 350 349
331 339 337 336 340 344 347 346 344 345 346 345 347 344 341 340 343 349 351 348 350 352 351 351 351 349 347 344 344 344 345 347 348 347 347 348 349 349 349 348 348 348 347 348 348 349 351 349 344 341 337 338 338 333 335 337 336 337 343 349 348 347 349 346 347 350 349 349 349 349 350 349 348 350 352 350 348 346 343 343 344 345 349 352 351 351 352 353 352 350 346 343 344 344 343 346 348
334 336 334 335 336 342 346 346 345 347 347 342 342 341 340 339 341 346 349 347 347 350 349 350 351 350 348 346 344 344 345 346 346 347 347 347 349 349 349 348 347 347 346 347 347 349 352 350 348 345 338 336 337 333 334 337 336 335 339 347 347 345 348 347 347 350 350 351 351 349 350 351 351 350 349 347 347 348 345 344 344 344 348 350 349 351 353 353 350 346 344 344 344 343 342 343 344
332 332 331 333 336 339 342 345 346 346 344 342 341 343 341 340 341 344 347 347 346 348 348 348 351 351 349 346 345 343 344 346 345 346 346 347 349 349 349 348 347 348 346 346 347 349 352 351 350 349 342 339 339 334 334 336 336 335 335 344 348 347 348 348 347 349 350 350 351 350 350 352 353 351 351 348 347 347 346 346 348 346 347 349 348 350 352 352 350 346 344 346 345 344 344 343 342
330 331 329 328 332 335 336 340 343 340 340 342 343 346 344 340 343 346 347 348 348 348 348 349 349 350 350 349 347 344 344 345 345 346 346 347 348 348 349 349 347 348 346 346 347 349 352 352 352 351 345 345 343 334 334 335 334 336 335 340 347 348 349 349 347 349 350 348 348 351 351 350 350 351 352 353 350 350 349 350 350 350 350 350 350 349 348 349 351 350 349 350 348 345 344 344 343
329 329 326 324 325 328 331 335 339 338 339 344 346 348 346 341 343 347 347 348 349 348 348 351 351 350 351 351 348 345 344 344 344 345 346 346 348 348 349 348 347 348 347 347 347 348 352 353 353 350 345 348 347 335 334 335 333 336 336 337 343 345 348 350 349 351 351 347 346 350 353 351 350 351 352 354 352 352 353 351 350 353 353 351 350 348 346 349 351 351 352 352 349 346 344 344 344
327 325 323 323 323 325 328 332 337 340 340 342 346 346 343 342 346 351 350 347 348 348 348 351 352 352 352 352 350 348 345 344 344 344 345 346 347 348 349 348 348 349 348 347 347 348 352 353 354 351 345 349 350 338 334 335 333 336 337 337 339 340 342 347 350 352 353 349 347 350 353 351 351 351 351 353 352 351 353 351 349 351 351 348 347 347 346 348 349 350 352 352 349 346 347 346 345
327 328 326 324 322 324 326 329 334 336 337 340 343 344 343 343 347 350 351 351 352 352 351 350 351 350 350 351 351 349 347 344 343 344 344 345 347 348 349 349 349 350 350 349 348 349 351 353 354 352 347 347 348 342 337 336 334 337 340 339 340 338 337 341 346 349 351 352 351 351 352 352 353 352 350 351 352 352 353 352 350 349 348 346 345 344 345 345 346 346 348 350 347 347 349 349 346
326 330 327 324 324 326 325 328 332 332 335 340 340 343 348 348 349 351 349 351 354 353 353 353 352 350 348 350 350 348 347 345 343 344 344 344 347 348 348 349 349 350 350 350 349 349 351 352 354 353 347 344 344 344 342 338 335 340 342 343 345 343 337 338 341 341 347 354 354 353 352 352 353 353 350 350 351 352 353 354 353 351 348 346 346 344 343 343 344 344 345 345 344 348 352 350 345
324 326 324 326 329 329 324 325 331 330 333 341 341 340 345 347 351 354 351 351 353 352 352 352 353 352 348 347 349 348 347 345 343 343 343 344 345 347 348 349 350 350 350 351 351 351 351 352 355 353 348 345 344 344 344 341 337 341 344 343 346 348 342 341 342 340 344 352 354 354 354 353 352 353 353 353 352 351 352 352 353 353 351 349 347 345 343 344 344 343 345 344 344 347 352 352 348
322 321 325 331 330 330 327 326 330 329 332 340 341 338 338 341 347 352 351 352 353 352 354 353 352 352 350 348 347 348 348 347 346 344 342 343 344 346 348 349 350 350 350 351 351 351 352 353 356 356 353 351 349 345 346 345 341 343 346 343 344 349 349 347 348 346 347 351 352 353 354 354 353 353 353 353 354 353 352 350 350 353 353 352 350 347 345 347 347 345 345 345 345 345 348 348 348
324 323 329 331 326 326 327 326 328 329 332 337 337 335 337 338 342 349 350 350 351 352 354 355 355 352 351 351 347 346 348 347 349 348 344 343 343 345 346 348 350 350 350 351 351 352 353 354 356 357 356 356 354 351 351 351 349 349 351 348 345 349 351 352 351 350 350 351 352 352 353 354 353 353 352 352 354 355 354 353 349 349 351 353 354 351 349 350 349 347 345 345 346 348 348 348 348
325 326 330 330 327 327 327 327 326 326 331 337 336 334 337 339 343 349 350 349 350 352 353 355 355 353 351 352 349 349 350 348 349 350 348 345 344 345 346 347 348 349 349 351 351 351 353 354 355 356 356 356 356 354 354 354 354 353 353 353 351 348 349 352 352 350 350 350 351 352 352 353 352 353 353 352 353 354 355 356 353 350 351 353 355 354 353 353 351 349 347 347 351 354 353 352 351
324 323 325 326 327 328 327 327 324 324 332 339 338 334 334 341 349 352 350 348 349 351 352 352 351 350 349 350 350 352 353 349 348 349 348 346 344 345 346 346 347 348 349 350 351 351 351 352 353 354 355 355 355 355 354 354 354 353 352 353 353 350 349 351 351 350 350 349 349 350 351 352 352 352 353 353 353 354 354 355 356 354 352 353 354 354 355 355 352 351 348 347 350 353 353 353 352
326 324 325 324 325 325 323 324 324 323 333 338 337 336 338 344 350 351 349 348 349 350 352 351 350 351 350 350 352 353 351 349 348 348 346 345 345 346 346 346 347 348 349 349 350 350 350 350 352 354 355 354 353 354 354 354 353 352 351 351 352 352 351 351 351 350 349 349 349 349 349 351 351 351 352 353 353 354 354 354 355 354 352 352 353 353 353 353 352 351 351 349 348 349 350 351 350
Wind_Speed
5 7 8 7 5 4 4 3 3 1 2 1 4 6 7 8 9 9 11 10 8 10 14 13 13 14 13 13 15 16 13 9 6 6 9 15 19 20 19 19 18 17 16 15 13 12 11 11 12 12 13 13 13 13 12 12 11 11 10 10 10 11 12 12 11 10 11 11 12 12 14 14 12 13 15 14 15 15 14 15 14 14 14 14 14 15 15 15 15 15 15 15 16 16 16 17 17
6 7 8 6 6 4 3 2 2 0 2 1 5 5 8 8 9 10 11 10 11 14 16 15 15 17 16 16 19 18 17 18 19 21 21 23 22 20 19 20 18 16 16 14 13 12 11 11 11 11 12 13 13 13 13 11 10 10 10 10 10 12 13 12 12 11 12 12 11 12 13 14 12 14 15 13 14 14 14 15 14 13 13 13 13 14 15 15 15 15 15 15 15 16 16 16 17
3 5 3 4 4 3 3 1 1 1 1 4 5 5 7 8 11 11 12 14 17 17 15 14 13 14 17 17 17 16 16 21 26 29 26 25 26 22 18 19 18 15 16 14 12 12 11 10 10 10 11 13 13 13 13 12 10 10 10 10 11 13 14 12 12 13 13 13 13 14 13 13 14 15 15 14 14 13 14 16 15 13 13 12 13 14 14 14 14 14 14 14 14 15 15 15 16
4 3 5 5 2 1 2 1 1 1 1 4 5 6 9 10 13 12 14 16 16 15 13 13 13 14 17 17 17 16 17 21 23 24 22 24 28 24 18 17 18 15 15 14 12 11 11 10 9 9 10 12 12 12 13 12 10 9 10 11 11 13 13 13 14 15 15 14 15 14 13 14 15 15 15 14 14 13 13 15 15 13 13 12 12 13 13 13 14 14 14 13 13 14 14 14 15
3 2 5 5 1 1 1 2 2 1 1 3 5 7 10 11 12 12 13 14 13 13 13 13 13 16 19 18 16 14 16 21 20 21 22 23 24 24 20 19 19 16 13 13 12 11 11 10 9 8 10 12 12 12 12 11 11 9 9 11 11 12 13 14 15 16 15 14 13 13 13 15 15 14 14 13 13 13 12 14 14 12 13 12 11 12 12 12 13 13 13 12 12 12 13 12 13
3 2 6 6 3 1 1 3 1 3 1 3 7 9 11 11 11 12 13 14 13 13 13 14 15 17 18 19 19 17 17 19 19 20 23 24 22 22 22 21 21 17 14 13 11 11 11 10 9 8 9 11 12 12 11 11 11 10 10 10 11 12 12 13 14 15 14 12 12 14 14 14 15 14 14 13 13 13 12 13 13 12 13 12 11 11 12 12 13 13 12 12 12 12 12 11 12
5 4 5 5 3 2 2 3 2 4 2 5 9 10 11 11 11 12 12 12 11 12 13 14 18 16 13 16 18 18 17 17 19 21 23 24 22 20 19 19 19 15 14 14 12 12 11 10 9 8 8 10 11 11 10 10 10 10 10 10 11 12 11 12 13 15 14 13 13 14 15 14 14 14 14 12 12 13 12 13 13 12 12 12 11 12 12 12 13 12 12 11 12 12 12 11 11
5 4 4 3 1 1 2 2 2 3 4 8 11 11 11 12 11 9 10 10 9 11 13 13 17 15 13 17 17 17 18 19 21 22 23 22 20 17 17 17 17 15 13 12 12 12 11 9 8 8 8 9 9 10 10 9 10 10 10 10 11 12 12 11 13 14 13 13 14 15 15 15 14 13 13 13 13 12 12 13 12 11 11 12 12 12 12 12 12 12 11 11 12 12 12 11 11
4 4 4 2 1 1 2 1 2 4 7 10 11 12 11 10 10 9 9 10 9 11 12 13 17 15 15 20 18 18 20 21 22 22 21 20 17 14 15 15 15 16 14 12 11 10 10 9 8 8 8 8 8 9 9 9 9 9 10 11 11 13 12 12 12 13 13 13 15 15 14 14 14 13 13 13 13 12 12 13 12 11 12 12 12 12 12 12 12 11 10 10 12 12 12 12 12
3 3 2 2 1 2 2 1 2 4 7 10 10 11 11 9 9 9 10 9 9 10 13 16 18 17 17 18 18 18 20 21 21 20 18 18 17 16 15 12 13 14 13 11 10 9 10 9 8 7 6 6 7 8 8 8 9 9 10 11 12 14 12 12 12 13 14 13 15 15 14 14 14 13 13 14 13 13 12 12 12 12 13 12 12 12 12 12 11 11 11 12 12 12 13 13 12
1 2 1 1 1 2 1 4 5 5 7 9 9 9 9 8 9 10 10 9 9 11 16 17 17 19 18 17 18 18 19 20 20 19 18 17 17 18 17 12 11 12 11 10 9 9 9 10 9 7 6 6 7 8 8 7 8 8 10 12 13 14 13 13 12 13 14 13 15 15 14 14 14 13 13 13 13 12 12 12 12 13 13 13 12 12 13 12 12 13 13 13 13 14 14 14 13
1 1 0 1 1 1 2 5 6 7 8 7 8 8 7 8 9 9 9 9 10 11 14 14 14 17 15 14 17 19 19 18 18 18 17 16 15 15 14 11 10 10 9 9 8 8 8 9 8 8 7 7 8 8 8 8 7 8 10 12 13 14 13 13 13 13 14 13 15 15 14 14 14 14 13 13 13 12 12 12 13 13 14 13 13 13 12 12 13 14 14 15 15 15 15 15 15
0 1 0 2 2 3 3 6 6 7 7 6 7 8 8 8 9 9 10 9 10 10 12 14 16 15 13 15 18 18 18 18 18 17 16 17 13 11 11 10 9 9 8 8 8 7 7 7 7 8 8 8 8 8 8 8 8 9 10 11 13 14 14 14 14 14 14 14 15 15 14 15 14 14 14 14 13 13 13 12 12 13 13 13 13 12 12 12 13 14 15 16 16 16 16 17 16
2 2 1 2 3 2 4 6 6 6 5 6 7 6 8 8 9 10 10 9 9 11 12 14 17 16 14 15 16 18 18 17 18 16 16 16 13 11 11 10 9 10 9 9 7 7 7 7 7 8 9 9 9 9 9 10 10 11 11 12 13 15 14 15 15 14 15 15 17 16 14 15 14 14 14 13 12 12 12 12 12 12 12 12 12 13 12 13 13 14 16 17 17 17 18 18 18
2 3 1 2 4 3 4 6 5 6 5 6 7 7 9 9 8 10 9 8 10 11 12 13 13 12 13 13 14 18 19 18 18 16 16 16 14 11 11 11 10 11 11 9 6 7 8 8 9 8 9 9 10 10 10 11 10 10 11 12 15 16 15 15 16 15 15 15 16 16 14 15 14 14 13 12 12 12 12 12 12 12 12 11 12 13 13 13 13 14 16 17 18 19 20 20 19
3 1 1 1 3 4 1 5 5 5 6 7 8 9 10 9 8 10 8 8 11 10 10 9 7 9 15 16 17 21 20 19 18 16 16 16 15 13 12 11 9 10 9 8 6 6 7 7 8 8 8 9 9 10 10 10 10 10 12 14 16 16 15 16 16 16 15 15 15 15 15 15 14 14 13 13 12 12 11 11 11 11 12 11 12 13 13 13 13 15 17 19 21 23 24 22 20
4 2 1 1 2 3 5 2 6 5 8 10 10 10 8 9 8 7 7 8 10 9 9 8 8 14 18 19 22 23 21 19 18 17 16 15 15 13 13 11 7 9 9 8 5 4 6 5 7 7 8 9 8 9 10 11 11 11 13 15 16 16 16 16 16 16 15 15 15 15 15 15 14 14 13 13 12 12 11 11 11 11 11 12 13 13 13 13 14 16 17 19 20 20 21 21 20
3 1 1 0 1 2 6 3 6 7 9 10 10 11 8 9 8 6 6 8 10 10 12 13 16 20 21 22 23 22 20 19 18 16 15 14 13 12 13 12 6 8 9 8 6 4 4 5 6 7 7 8 8 9 11 11 12 12 12 14 16 16 16 16 17 16 15 15 16 16 15 15 15 15 14 13 12 12 11 11 12 12 12 13 14 13 13 14 15 16 16 16 15 14 15 16 17
4 1 2 1 0 3 7 5 5 8 10 12 10 12 9 9 9 6 7 9 11 12 14 18 20 22 22 22 22 21 20 18 17 15 14 13 12 11 12 11 8 8 7 8 8 5 4 6 7 6 7 9 9 9 11 11 11 12 13 14 16 17 17 17 17 16 16 16 16 15 15 15 15 15 14 13 13 12 11 12 13 13 13 14 15 14 15 15 15 15 16 16 15 13 12 13 15
2 1 1 1 2 4 9 11 3 11 11 13 11 11 10 9 9 7 8 10 11 11 13 17 19 21 22 22 21 20 19 17 15 13 13 12 11 11 11 10 9 8 6 7 9 7 5 6 7 6 8 10 11 10 11 12 11 12 13 15 17 18 17 17 17 16 16 16 16 16 16 16 15 15 14 13 13 13 12 13 14 13 13 14 15 15 15 15 14 14 14 14 14 14 12 13 13
2 1 0 1 3 2 7 13 5 13 10 12 11 11 10 9 9 9 10 9 8 10 13 16 19 22 22 21 20 18 17 15 14 13 12 11 10 10 10 9 10 10 9 8 9 8 6 7 7 7 9 11 11 11 12 13 12 13 14 16 17 18 17 17 17 16 17 17 16 16 16 16 15 14 14 14 14 14 14 13 14 13 13 13 14 15 13 12 12 13 12 10 12 13 12 9 7
6 2 1 2 3 1 1 9 8 11 9 11 11 10 9 7 9 10 10 7 7 10 15 19 20 21 21 20 19 17 16 14 13 12 12 12 10 10 11 10 10 12 11 8 8 9 8 8 7 8 10 11 12 13 14 14 14 14 15 17 18 18 19 19 18 17 17 18 17 17 17 16 15 14 14 15 15 15 14 12 12 13 12 11 11 12 10 9 11 12 10 8 9 11 9 6 7
7 1 2 5 5 3 4 8 6 9 8 8 8 9 10 8 8 7 7 8 9 12 16 20 20 20 20 19 18 16 15 14 12 12 12 13 12 10 11 11 11 11 9 7 8 10 10 9 9 10 12 13 13 15 16 16 16 15 16 18 19 19 20 20 19 19 17 17 17 17 16 15 15 14 14 15 13 13 11 7 6 8 8 9 8 7 7 9 9 6 4 6 7 6 6 8 10
10 4 4 5 6 6 5 4 3 8 9 8 4 9 10 9 8 5 8 11 12 15 18 19 20 19 18 17 17 16 14 14 13 12 12 13 13 11 10 10 9 10 9 8 11 12 11 10 11 11 13 14 15 16 16 17 17 16 18 18 19 20 21 21 20 19 18 18 18 18 16 15 14 14 14 13 12 12 9 6 5 6 4 4 6 4 4 6 6 6 6 7 8 7 4 6 8
8 5 7 6 6 6 4 1 2 7 11 9 6 8 8 8 10 7 10 13 14 17 19 19 19 18 17 17 16 15 14 14 13 13 12 13 14 12 11 11 9 12 11 8 12 14 12 11 13 13 14 15 16 17 17 18 18 17 18 19 20 22 22 21 21 20 20 19 19 17 15 14 13 13 11 10 10 9 9 7 6 6 5 4 4 4 6 6 6 6 6 6 7 7 5 6 5
3 6 8 7 6 4 3 4 5 8 9 6 5 8 9 8 10 9 10 13 16 18 19 19 19 18 16 16 16 15 14 14 14 13 13 14 15 13 12 12 11 13 12 10 11 14 14 12 13 15 15 15 16 18 18 18 19 19 20 21 22 23 22 21 21 21 20 19 17 15 14 12 11 10 7 8 9 10 9 7 6 6 6 5 5 5 7 6 5 5 5 4 5 6 4 6 7
6 8 6 5 7 5 4 4 5 8 8 6 5 6 10 9 5 7 11 14 18 18 19 19 18 17 16 16 15 14 15 14 14 14 14 15 14 13 13 12 12 13 13 13 12 14 16 14 13 14 15 16 17 18 19 19 20 21 21 22 22 22 22 21 20 19 18 17 16 14 13 11 9 8 9 10 11 10 8 7 7 6 5 5 5 4 4 5 4 4 5 4 6 7 4 6 8
10 12 6 2 4 5 5 4 4 6 7 9 6 1 7 9 2 6 13 15 18 19 18 18 17 16 16 15 14 14 14 14 14 14 15 15 13 13 13 13 14 14 14 14 14 15 16 14 13 14 15 16 18 19 20 21 22 22 21 21 21 21 21 21 20 18 17 16 15 15 13 11 10 11 11 9 9 9 7 7 6 6 5 5 5 3 4 6 4 4 7 6 7 7 4 6 8
9 9 6 2 3 4 5 4 5 3 3 11 9 2 6 5 1 8 14 14 17 18 18 17 16 16 15 15 14 13 14 13 14 14 14 14 13 13 13 14 14 14 14 14 14 16 16 16 15 14 14 16 18 19 20 22 22 20 21 21 21 21 20 19 19 17 15 15 15 16 14 12 14 12 11 9 8 7 6 7 6 5 5 4 5 5 5 7 4 3 6 5 5 5 4 4 5
8 2 1 3 3 3 5 3 3 0 1 11 9 3 6 4 6 11 13 15 17 17 17 16 16 16 15 14 14 13 14 13 13 13 13 14 13 14 14 14 14 14 15 15 15 16 17 17 16 15 15 15 17 17 17 19 20 18 20 20 19 20 20 17 16 15 15 16 16 17 17 15 15 13 12 11 9 7 6 6 6 6 6 5 5 7 6 5 3 2 3 2 4 4 4 5 5
5 4 4 2 1 2 5 4 7 5 4 9 6 2 6 6 10 12 13 15 17 16 17 17 15 16 14 14 14 13 13 13 13 13 13 14 14 14 15 15 15 15 15 16 16 16 16 16 16 17 16 15 16 16 15 15 17 17 17 17 17 18 19 16 14 15 17 17 15 15 16 15 15 15 14 12 12 10 7 6 6 6 8 7 5 7 6 3 4 3 3 3 4 4 4 6 5
3 4 4 1 1 1 4 4 7 7 5 7 4 2 6 6 10 12 13 15 16 15 17 17 16 16 15 14 14 14 14 13 13 14 13 14 15 15 15 15 15 15 16 17 16 16 16 16 16 17 16 15 15 16 15 15 16 16 15 14 16 17 16 16 15 15 15 15 15 14 13 13 14 15 14 12 11 11 10 8 6 6 7 7 6 9 9 5 5 4 4 4 3 5 5 4 4
1 2 5 2 2 3 4 4 7 6 4 6 3 2 4 4 8 11 13 16 16 15 15 17 16 15 15 14 14 15 14 14 14 14 14 15 15 15 15 15 15 16 17 17 16 16 16 16 17 16 16 16 16 16 16 15 16 16 15 14 15 16 16 16 15 14 13 12 13 13 12 13 13 13 12 11 10 10 10 8 6 5 5 6 9 10 8 4 4 5 5 6 3 4 5 5 3
1 1 4 5 2 3 4 3 7 7 6 7 5 4 4 4 9 11 12 15 16 15 14 16 17 16 15 13 14 15 14 15 15 15 15 15 16 16 15 16 17 17 17 16 16 16 16 16 17 16 16 16 16 18 17 16 16 16 15 15 15 15 15 15 15 14 13 11 12 14 13 12 12 12 11 10 10 9 8 8 7 6 5 5 8 8 5 4 4 3 4 7 7 5 5 4 3
4 3 3 4 4 2 4 4 8 9 8 8 7 7 6 5 8 11 13 14 14 16 16 15 16 16 16 14 14 15 15 15 16 16 15 16 17 17 16 16 17 17 16 17 16 16 17 17 17 17 16 15 16 18 17 16 17 15 14 14 14 15 15 15 15 14 13 11 12 13 12 11 11 11 11 10 8 8 9 9 7 6 5 5 7 6 4 6 7 6 3 5 8 7 5 3 3
7 6 3 2 4 2 0 2 8 11 7 6 9 8 6 5 7 10 14 15 13 14 16 16 16 16 16 15 14 15 16 16 16 17 16 16 17 17 17 17 17 17 17 17 17 17 17 17 17 17 15 16 17 17 16 16 16 14 14 14 14 14 14 15 14 14 14 12 11 12 10 10 10 10 10 9 7 7 7 7 6 5 5 6 7 5 5 6 9 9 6 5 6 6 6 4 2
8 3 3 2 2 3 2 2 5 10 7 7 11 9 7 7 7 7 10 13 15 14 15 15 16 16 16 16 16 15 16 17 16 17 16 16 18 18 18 18 17 18 18 18 18 18 17 17 17 17 15 16 17 17 15 14 14 14 14 14 14 14 14 14 13 13 13 12 11 11 9 8 9 9 8 8 7 7 6 5 5 6 5 5 6 6 7 6 6 7 5 6 6 3 3 3 2
2 1 3 3 3 2 2 2 4 7 5 6 8 6 6 6 4 4 6 6 11 13 14 15 16 16 16 16 17 16 16 17 17 17 18 17 18 18 18 18 19 19 18 18 18 18 17 16 17 16 15 15 16 16 15 13 14 14 13 13 13 13 14 14 13 12 12 12 11 10 9 8 8 7 7 7 7 7 5 5 5 6 4 5 6 6 6 5 6 5 5 7 7 4 2 2 3
1 2 1 2 3 3 2 3 6 6 3 2 3 3 3 3 2 5 6 5 7 9 11 13 17 16 16 17 17 17 16 18 19 18 18 18 18 18 18 18 19 19 19 18 18 18 18 17 17 16 15 15 15 15 15 14 14 13 12 12 12 12 12 12 12 11 11 10 10 9 9 9 8 6 6 6 6 6 5 5 6 5 4 5 5 5 5 4 5 6 6 6 7 7 6 3 3
2 2 3 1 4 2 1 3 7 5 2 1 4 4 2 0 3 6 5 4 6 11 17 13 16 16 16 18 18 18 18 19 20 19 19 19 19 19 19 19 19 19 19 19 18 18 18 19 19 17 16 15 15 16 15 14 14 13 12 12 11 11 10 10 9 8 9 9 9 8 8 9 8 7 7 6 4 5 6 6 6 5 5 5 5 4 5 4 4 5 5 6 7 8 7 5 5
4 3 1 1 5 2 3 4 5 2 2 2 5 4 3 4 8 7 4 3 7 12 19 16 16 16 15 17 19 18 18 20 21 21 20 20 20 19 19 19 19 20 20 19 19 19 18 19 19 18 17 16 15 16 15 15 16 14 13 14 12 11 10 11 10 9 10 10 8 7 8 9 8 8 7 6 4 4 5 6 6 7 6 6 6 6 5 3 3 4 4 7 7 7 8 7 6
6 8 5 2 1 5 6 6 5 2 4 4 5 4 4 8 11 9 6 5 6 12 16 15 17 16 15 16 19 19 18 19 20 21 21 20 21 20 19 20 19 20 20 20 20 19 18 19 19 19 19 17 16 17 16 17 19 18 16 15 14 13 11 11 11 9 9 8 6 6 7 7 7 6 6 6 4 5 6 7 7 8 8 7 7 6 6 5 6 5 5 8 8 7 8 8 5
3 9 9 3 3 7 6 7 4 3 3 4 5 4 3 7 11 10 9 10 11 12 14 15 17 17 16 16 18 21 20 20 20 20 21 21 21 21 20 21 20 20 20 20 20 19 19 20 20 19 20 18 17 18 17 18 20 19 17 14 12 13 11 10 10 8 7 6 4 5 6 7 7 6 5 5 4 4 6 7 7 7 8 7 6 6 6 6 7 7 6 8 9 8 8 7 6
1 10 10 4 4 6 5 5 3 2 1 3 7 8 5 4 9 11 11 10 12 12 10 12 17 18 19 18 17 21 21 21 21 21 22 22 21 21 21 21 20 20 20 20 20 20 20 20 20 20 20 19 19 19 17 17 18 18 16 12 11 11 9 10 10 8 7 6 5 6 6 6 8 8 6 5 4 4 5 5 6 7 8 8 6 6 6 6 7 6 6 7 7 8 7 7 7
4 10 7 4 4 7 7 4 0 3 3 2 7 10 7 4 6 10 11 10 11 12 11 12 15 17 19 19 18 20 21 21 21 21 22 22 22 21 21 21 20 20 20 20 20 21 21 21 21 21 21 20 19 19 17 16 16 16 15 11 10 11 8 9 10 9 9 8 7 8 8 7 7 8 8 7 5 4 5 5 5 7 7 7 7 6 5 5 5 4 5 7 8 9 9 9 8
8 7 3 3 5 7 8 4 3 2 2 4 5 8 7 3 5 9 9 10 11 11 11 12 15 17 18 19 19 20 21 21 21 21 21 22 22 22 21 21 20 20 21 20 20 21 21 21 21 21 22 21 19 19 18 17 16 15 15 13 11 11 9 9 10 10 11 10 8 8 9 9 8 6 7 7 6 6 5 5 5 6 6 6 7 6 6 4 2 4 6 7 8 9 9 9 8
7 1 4 4 5 4 4 4 5 1 2 4 6 8 9 4 4 7 7 8 11 10 10 13 16 19 20 20 20 20 22 22 22 22 22 22 22 22 21 21 20 20 21 21 21 22 21 22 22 21 21 21 19 19 18 17 16 15 15 14 13 12 11 10 11 11 11 12 11 9 8 9 9 7 7 7 6 6 6 6 6 6 6 6 6 6 8 6 4 5 5 5 6 6 7 8 8
4 3 6 5 4 3 3 2 4 3 2 1 4 7 10 5 1 5 6 6 8 11 10 10 15 20 22 22 21 20 21 22 22 22 23 23 23 22 22 22 22 21 21 22 22 22 22 22 23 22 21 21 20 20 19 18 17 16 15 15 15 15 13 11 13 12 11 12 11 10 9 9 8 6 7 8 7 6 7 7 7 7 7 7 7 7 9 9 7 6 5 5 6 5 6 7 7
2 3 5 5 4 4 4 3 3 3 2 2 3 1 5 6 4 4 8 8 6 10 11 12 18 22 22 22 21 20 21 23 23 23 23 24 24 24 23 23 23 22 22 23 22 23 23 23 24 23 22 22 21 20 20 19 18 17 16 15 15 17 16 13 13 13 12 11 11 10 10 10 9 8 8 9 7 8 10 9 8 8 8 8 8 8 9 8 8 8 7 7 7 5 7 8 6
7 6 6 5 5 5 5 3 2 1 2 4 7 5 2 4 6 10 5 4 4 8 11 11 17 20 19 21 22 21 21 23 24 23 24 24 24 25 24 24 24 23 22 22 22 23 23 23 24 24 23 23 22 20 21 20 20 18 17 16 15 16 17 15 14 12 11 11 10 11 10 9 8 9 9 8 6 9 12 11 9 10 9 8 9 8 8 9 9 10 9 9 9 8 8 8 6
8 8 6 6 6 5 4 3 1 1 1 4 6 4 1 2 3 9 12 8 5 4 4 3 8 15 19 20 22 21 20 23 25 24 24 25 25 24 24 24 24 24 23 22 22 23 24 23 24 24 23 23 22 20 21 20 21 20 18 18 16 16 16 16 15 13 11 10 10 11 11 9 8 8 8 8 7 9 11 10 8 10 9 7 8 9 9 9 9 10 11 11 11 9 9 9 7
5 5 5 6 6 4 4 4 3 3 1 1 2 1 0 0 0 4 10 12 10 11 11 9 6 13 20 21 23 24 24 24 25 25 25 26 27 25 25 25 24 24 24 23 23 23 23 23 24 24 24 23 22 21 21 20 20 20 19 18 17 16 16 16 16 15 13 12 10 11 11 11 11 10 8 10 11 11 12 11 9 9 9 8 8 9 9 9 9 10 10 11 11 9 9 10 9
3 3 6 6 5 5 5 4 2 3 3 1 1 1 2 2 1 3 6 9 8 9 12 13 14 13 18 23 24 26 27 27 25 26 26 26 28 27 25 26 25 25 24 24 24 24 24 24 24 24 23 23 22 22 21 20 20 20 20 19 18 17 16 16 16 15 14 12 12 12 11 11 11 11 9 10 12 13 13 13 11 9 9 10 9 9 10 9 9 9 9 10 10 9 10 11 11
6 5 1 1 5 6 4 3 4 4 3 0 0 1 2 2 1 1 4 9 8 8 10 11 14 15 14 18 22 25 28 26 21 24 28 27 27 28 26 26 25 24 24 25 25 25 24 23 23 23 23 23 22 22 21 21 20 20 20 20 19 17 16 15 14 14 13 12 13 13 12 11 11 11 10 10 11 12 12 13 12 11 11 11 10 10 10 10 9 9 10 10 10 9 11 12 11
13 4 5 1 4 4 2 3 5 5 2 0 2 1 1 3 2 3 3 4 6 4 7 8 7 10 13 14 19 24 27 25 15 13 24 27 26 28 27 25 25 24 24 25 25 24 23 22 22 22 22 22 21 21 20 20 19 19 19 19 19 18 16 15 14 14 13 13 13 13 12 12 12 12 12 12 12 12 12 12 12 12 13 13 11 10 10 10 11 10 10 11 10 10 10 11 12
12 3 6 4 4 3 3 4 5 4 1 1 1 1 1 2 1 3 6 5 4 2 4 5 5 7 11 12 16 17 19 27 20 7 14 24 25 26 27 25 25 25 25 25 25 24 23 22 22 22 21 21 20 20 19 19 18 18 17 17 18 18 17 16 15 15 14 14 14 13 13 13 13 13 13 14 14 13 13 13 12 11 11 12 12 11 10 11 12 11 11 10 10 12 13 12 12
6 3 3 5 5 5 5 6 7 4 2 2 0 1 1 1 2 3 4 3 2 4 3 2 6 9 12 11 13 9 7 24 28 9 5 19 23 22 23 24 24 24 24 25 25 24 24 22 22 21 20 20 19 19 18 18 17 17 16 16 16 17 17 17 16 15 15 15 14 14 14 14 14 14 13 14 14 14 14 13 13 12 10 11 13 13 12 13 13 12 12 12 12 14 15 14 13
5 3 4 6 5 5 6 6 6 3 2 4 3 1 1 1 2 4 5 2 2 2 3 2 6 5 8 6 3 0 3 15 26 15 7 15 23 21 20 22 24 24 22 22 23 23 23 23 22 20 19 18 18 20 20 19 17 16 15 15 15 15 16 16 16 15 16 15 15 14 14 14 15 14 14 15 15 14 14 14 14 14 12 11 14 15 15 15 14 14 13 13 13 14 15 16 16
Wind_Direction
55 31 28 21 25 1 313 282 283 216 223 241 121 102 102 103 108 112 102 101 92 83 79 74 66 74 88 87 84 78 64 59 67 80 110 139 139 137 144 142 140 140 138 136 141 142 136 127 124 123 120 117 113 112 109 106 105 105 105 102 101 98 93 91 96 104 105 104 107 109 105 106 116 122 118 118 115 111 105 101 102 101 98 97 97 96 93 91 89 88 87 85 85 85 85 85 84
57 15 17 0 344 329 316 331 307 208 211 112 89 92 107 108 102 97 97 95 85 87 88 86 78 75 81 84 85 78 66 72 86 93 112 135 132 136 146 138 139 140 133 133 138 139 133 123 123 125 126 122 117 116 113 111 109 109 108 108 106 102 99 97 102 107 106 106 109 110 110 111 117 120 118 116 111 109 108 105 103 102 100 98 97 96 94 94 92 90 89 86 85 86 86 88 88
81 328 304 289 320 290 301 22 282 303 133 106 90 97 107 103 96 93 93 91 92 97 93 87 78 77 83 79 79 82 83 85 95 104 115 130 129 133 142 136 138 138 133 133 136 137 130 124 124 128 131 126 123 121 117 116 115 115 113 111 108 105 105 104 108 109 108 111 109 111 116 115 116 121 120 116 112 110 110 110 109 105 101 96 95 97 96 95 94 93 91 89 87 88 89 91 92
146 288 270 279 334 239 305 343 246 297 143 107 94 100 100 99 99 96 93 95 101 101 93 87 71 67 80 83 85 86 92 95 102 110 119 132 131 132 138 132 131 138 137 134 138 138 133 130 131 132 128 126 125 121 118 118 118 119 115 114 112 111 113 112 113 113 114 114 113 117 123 122 120 123 122 118 115 114 113 110 109 106 99 95 94 96 98 96 95 96 94 92 90 90 94 96 97
149 256 282 300 311 172 248 259 234 150 140 110 107 103 102 102 103 102 99 98 99 98 97 97 84 72 72 78 88 95 104 104 106 111 119 133 133 132 136 132 132 142 140 135 140 140 140 135 136 134 127 126 125 121 121 122 125 126 123 123 119 116 118 118 119 119 116 115 121 126 126 122 119 120 119 118 116 116 115 107 106 105 101 98 96 96 98 97 96 97 95 92 91 92 95 102 105
38 311 294 305 276 248 261 274 118 111 89 119 115 107 108 106 107 105 101 98 95 96 94 91 95 89 75 74 82 95 109 106 105 112 119 126 131 135 140 142 145 146 139 137 141 145 145 138 139 138 131 128 123 121 122 123 127 129 130 129 125 123 123 122 123 120 117 120 128 129 125 120 118 120 121 122 121 118 113 107 105 103 101 100 99 98 98 99 99 97 95 93 91 92 96 104 110
5 337 318 324 288 286 285 305 72 105 103 117 109 110 112 108 113 111 106 104 104 103 96 95 103 100 86 84 82 87 101 106 109 115 119 121 128 136 135 140 145 141 137 138 142 146 145 143 146 145 140 131 124 123 125 128 129 133 134 133 133 130 126 124 123 123 124 125 128 128 125 122 121 122 125 128 122 116 111 106 104 102 103 104 102 100 100 101 99 97 95 93 92 92 98 105 113
346 357 1 343 285 328 291 309 45 85 93 102 101 109 112 116 123 114 104 101 104 104 101 102 102 96 91 92 87 89 99 105 111 115 118 121 129 134 127 131 135 134 137 137 141 146 144 148 152 149 144 135 131 130 133 135 133 138 139 137 137 134 129 126 127 128 128 126 129 130 126 124 125 126 128 128 121 116 113 108 107 108 107 105 104 102 102 101 98 96 94 91 91 94 98 107 115
341 7 12 323 318 328 274 314 70 84 97 102 100 109 113 121 119 103 99 98 99 98 102 106 101 99 99 97 94 98 103 108 113 116 118 120 125 124 124 130 129 129 134 134 140 147 146 149 149 144 142 140 141 141 143 142 141 144 141 139 139 136 134 130 132 132 127 128 132 131 127 124 125 130 130 127 125 122 119 114 113 112 109 105 104 104 103 101 98 94 90 88 91 96 100 107 116
339 19 10 316 1 310 251 144 112 95 99 104 104 112 115 114 109 105 103 100 99 96 102 105 103 107 106 101 102 107 112 116 117 116 118 117 119 117 118 123 120 123 128 132 140 149 150 147 145 141 141 143 145 151 152 150 153 151 143 143 143 139 139 138 139 135 129 130 131 129 129 127 127 131 131 129 129 126 121 117 115 112 107 104 103 103 104 102 97 89 85 87 93 100 102 105 113
21 68 99 310 305 299 252 132 129 114 102 106 108 108 110 114 114 109 104 103 107 108 111 111 107 107 105 99 104 114 118 121 119 117 118 116 121 122 119 122 121 123 126 130 138 147 153 151 151 149 151 154 156 162 159 159 164 159 149 148 147 142 142 143 143 138 133 132 129 130 134 133 131 130 130 130 128 125 119 115 112 107 103 104 103 104 103 98 90 86 85 88 92 99 104 106 110
36 89 103 310 233 261 204 129 118 119 115 111 108 109 113 117 117 114 113 114 112 108 109 112 113 110 106 104 112 122 123 121 119 120 120 117 124 129 126 129 130 129 127 129 136 146 153 152 155 157 163 171 173 178 169 165 168 165 153 147 147 146 148 144 143 143 137 135 129 132 139 137 133 131 132 131 128 126 119 113 109 104 103 100 101 104 101 94 88 88 89 89 87 92 102 105 107
201 145 62 303 240 217 159 117 119 122 115 110 105 118 128 120 122 124 118 113 111 109 110 117 121 116 109 112 122 127 123 123 123 124 123 119 123 128 125 127 126 124 120 126 135 141 147 147 153 160 166 176 182 185 176 167 166 168 158 149 149 149 153 143 141 147 141 139 135 136 142 137 133 132 131 130 129 127 118 112 109 105 102 98 101 104 99 93 93 94 94 90 85 87 96 101 104
203 168 259 290 269 248 140 127 136 122 100 109 113 120 120 116 124 123 118 113 108 111 117 124 121 112 111 120 129 130 127 129 129 127 124 121 123 120 113 111 109 110 115 122 126 129 137 142 146 156 161 169 179 179 175 171 168 170 161 153 152 153 155 146 141 148 142 137 136 140 141 136 135 133 132 130 127 123 118 112 108 105 101 100 106 107 101 96 97 97 94 91 88 87 90 95 98
193 147 259 295 318 304 151 138 126 117 119 124 121 115 107 115 125 115 117 118 110 115 117 119 120 121 133 137 134 135 135 134 133 129 126 121 120 116 104 104 107 110 117 115 111 125 135 142 146 154 159 160 170 173 171 170 168 168 160 155 155 154 155 149 146 147 141 135 135 138 139 136 135 135 132 128 124 121 118 111 107 107 104 103 108 109 104 99 98 96 93 91 91 89 87 88 91
219 205 2 339 334 314 127 118 122 121 131 132 124 121 113 114 116 111 123 125 114 121 120 119 136 142 141 136 133 137 138 136 134 129 127 122 121 120 109 111 115 107 108 103 101 126 135 147 150 150 159 159 164 168 167 164 164 164 158 154 153 153 153 149 146 146 142 139 135 135 137 136 135 135 131 127 126 124 119 113 110 109 107 108 112 112 106 100 97 92 90 90 92 90 86 85 85
214 272 345 2 325 317 348 74 142 128 126 133 132 128 118 112 113 121 135 125 117 123 120 112 125 129 129 129 131 136 137 137 136 132 129 126 127 129 123 125 128 110 99 96 100 126 132 139 148 150 160 159 160 167 167 163 162 162 151 145 147 150 152 149 146 146 145 142 136 135 136 136 137 135 131 129 127 124 118 115 114 111 110 114 116 113 105 99 94 89 88 90 94 90 86 85 84
158 301 251 255 265 283 328 352 120 127 133 134 137 134 128 125 133 150 136 121 127 125 109 97 100 111 118 125 132 136 139 139 138 137 134 135 136 135 132 132 139 131 119 115 127 151 137 125 140 158 168 158 161 170 168 163 161 159 147 142 146 147 150 151 148 147 146 143 139 138 140 142 142 137 133 130 126 120 116 116 116 113 113 116 118 113 104 99 93 88 84 85 88 85 80 80 79
140 209 214 133 244 285 312 322 129 142 140 132 139 137 134 138 145 159 140 133 135 119 108 106 107 113 121 129 135 138 141 142 142 141 140 142 140 138 143 140 140 140 130 127 132 140 133 122 131 153 167 161 162 165 162 158 158 156 149 146 146 149 153 152 149 147 147 146 144 144 145 143 140 136 133 130 124 120 120 121 116 113 115 118 119 110 101 98 92 86 82 78 76 73 70 67 69
132 178 175 93 1 319 330 322 187 146 139 138 138 134 132 142 149 154 144 137 129 120 119 122 122 126 130 134 138 141 144 145 143 143 144 145 140 141 147 142 141 141 125 120 124 120 119 121 128 145 154 156 159 159 158 155 155 152 147 146 147 151 153 150 150 149 148 147 145 145 143 139 137 133 131 128 124 122 123 120 113 112 112 113 113 108 101 92 83 79 77 76 71 65 61 57 55
96 61 168 75 43 359 351 320 229 147 141 138 132 136 135 144 149 145 146 136 127 134 134 132 133 134 136 139 142 145 145 145 144 143 144 144 140 138 139 137 138 139 134 130 130 131 132 126 133 144 138 145 151 151 151 149 151 150 144 144 147 151 151 149 151 149 147 144 142 142 138 134 132 130 128 127 124 123 124 118 114 111 107 109 108 103 96 80 67 60 57 65 70 63 58 63 66
78 8 252 182 120 112 319 281 222 147 147 142 138 143 133 139 138 141 152 139 133 141 135 134 136 137 139 141 143 143 143 145 146 144 143 142 143 141 139 135 127 132 145 151 142 141 141 132 136 141 133 138 143 141 142 141 145 147 143 144 147 149 150 150 150 148 146 142 142 142 137 133 132 132 129 125 126 123 116 113 115 112 104 103 99 92 81 66 57 45 32 34 66 68 62 95 131
105 295 233 201 176 177 224 256 208 155 157 135 138 137 129 132 127 146 156 131 134 136 134 136 137 140 140 139 141 143 144 147 146 144 144 142 145 145 136 133 131 135 149 154 141 138 139 133 132 133 129 133 137 137 139 139 143 145 142 145 148 148 149 148 148 147 145 144 146 145 141 139 137 136 131 127 125 110 99 108 120 111 95 87 91 84 59 58 62 62 50 37 76 94 70 83 106
117 158 182 197 175 172 218 254 193 175 141 114 150 140 136 135 128 155 134 123 133 133 133 136 138 140 138 140 142 142 143 146 146 146 144 142 143 143 138 139 141 138 138 137 129 129 135 133 130 127 122 128 133 133 136 139 142 145 145 145 144 146 149 147 145 144 142 144 147 146 145 144 141 136 129 123 113 102 116 155 136 114 106 95 101 96 70 76 92 107 99 74 89 111 101 92 85
100 147 176 188 175 174 214 212 179 186 134 131 187 148 144 140 135 148 131 133 137 134 136 137 140 139 140 142 139 141 145 145 145 144 140 139 140 138 141 142 134 132 136 134 121 123 134 133 128 124 118 121 127 128 131 137 140 142 144 143 139 142 147 145 144 144 143 145 146 144 145 144 137 127 116 112 113 124 150 158 123 126 149 143 123 120 120 114 113 98 86 83 91 105 121 130 122
102 147 168 178 183 175 181 158 178 192 143 138 191 148 146 143 141 150 146 145 136 135 140 139 142 141 142 140 136 143 145 143 143 141 136 137 137 133 139 141 132 132 134 133 123 125 132 131 127 122 120 120 124 129 130 134 139 139 138 141 142 143 147 147 147 147 145 146 141 134 135 134 124 119 127 143 147 149 151 142 139 151 146 138 139 132 121 109 106 93 89 109 104 108 113 108 124
127 134 160 173 177 175 166 157 179 185 134 119 187 159 142 148 160 163 154 147 139 142 143 141 144 142 142 138 139 147 142 142 141 139 139 138 139 137 140 140 135 136 135 136 133 128 128 129 130 123 119 120 124 129 130 130 134 134 132 136 143 147 150 149 148 147 147 145 137 130 129 124 128 150 164 162 152 142 139 145 151 148 141 143 140 123 126 131 135 138 131 135 110 103 111 105 112
125 125 134 157 175 173 155 157 213 197 128 132 177 123 137 157 174 160 155 151 147 147 144 144 145 142 143 139 142 145 139 141 141 143 143 140 143 141 141 140 136 136 135 139 138 130 128 129 130 123 118 121 126 128 127 129 132 131 130 132 138 146 151 150 149 149 151 150 142 136 128 132 164 174 159 148 139 133 138 148 143 140 149 146 126 119 148 135 135 162 145 127 103 95 100 108 112
109 115 125 157 218 176 149 189 233 249 128 148 160 124 147 154 211 172 158 155 153 149 147 148 146 143 143 141 144 143 138 141 142 146 143 142 147 143 141 140 138 136 134 140 139 132 133 133 131 127 123 122 127 128 126 131 137 135 132 134 136 142 151 151 148 148 151 155 148 140 139 160 183 169 143 141 136 133 144 145 142 148 149 139 138 146 128 110 96 102 104 85 80 97 95 91 115
71 39 172 172 240 185 152 192 184 292 174 154 160 181 146 141 240 199 161 159 158 152 151 149 147 147 146 146 147 143 141 146 146 145 143 143 146 144 142 139 138 137 135 139 136 130 133 133 134 134 129 125 124 127 129 132 137 137 136 141 141 146 152 144 139 148 156 158 153 150 153 169 178 158 143 149 144 140 147 144 148 160 155 149 148 131 97 90 132 98 82 74 71 104 109 93 124
71 269 249 175 282 212 172 176 164 178 183 155 165 200 136 159 224 199 163 165 164 159 157 153 154 152 150 151 149 147 148 151 148 144 146 145 144 144 141 138 138 138 138 139 136 133 132 132 136 135 130 130 128 131 135 128 129 137 142 147 146 145 147 140 141 154 159 159 157 158 158 165 166 154 151 154 148 147 148 148 158 172 160 152 159 137 116 129 156 146 183 170 95 106 111 93 113
120 245 270 174 92 184 179 185 191 193 162 158 185 163 142 172 200 183 170 170 167 169 163 155 159 155 154 155 151 152 153 152 149 148 150 145 143 143 141 140 140 140 140 139 138 137 137 137 139 136 133 135 133 132 133 126 130 141 143 141 137 137 141 144 150 154 153 155 157 159 155 158 157 152 152 147 147 153 152 158 168 176 159 151 170 147 133 158 169 170 168 145 109 124 132 114 104
141 277 304 328 103 154 163 191 212 212 167 173 198 156 154 177 195 189 180 174 170 178 170 158 161 158 157 160 156 154 152 152 151 151 151 146 144 144 143 143 141 141 141 139 140 140 139 139 139 138 138 137 137 136 132 134 141 142 138 134 132 135 141 146 148 148 148 152 157 157 152 154 154 153 151 142 150 159 150 155 159 160 154 151 164 143 125 158 180 193 159 123 121 130 131 133 120
1 352 315 331 356 156 165 186 201 212 202 187 180 180 178 167 196 204 192 183 175 177 178 164 161 161 160 164 159 154 153 155 153 153 153 148 146 146 145 144 143 142 142 141 141 141 141 141 142 142 141 141 145 143 137 140 140 135 134 134 132 136 141 143 145 148 150 155 159 156 154 156 156 154 153 149 153 150 141 152 154 154 160 157 156 137 127 162 164 199 189 148 145 126 108 109 129
328 349 328 333 324 202 182 183 176 190 201 187 186 197 191 165 195 210 199 192 185 179 180 172 165 162 162 166 163 157 157 157 154 156 156 150 147 147 146 145 145 144 144 144 142 142 143 144 146 144 142 146 149 144 140 137 132 132 136 134 132 135 140 143 145 147 150 159 163 157 157 159 160 160 160 161 156 147 146 150 149 155 162 149 144 134 147 185 178 160 167 179 164 138 114 101 114
5 359 338 336 317 322 168 187 165 171 177 183 196 193 180 178 200 215 200 192 195 189 181 174 168 165 165 167 165 161 160 157 157 157 156 154 150 148 148 147 148 147 146 147 145 145 146 149 149 144 147 154 150 141 138 135 131 138 142 138 138 140 143 144 145 151 152 162 167 159 160 161 163 167 168 169 160 153 154 145 138 146 155 142 135 148 170 192 189 166 156 187 175 138 120 125 123
44 358 327 356 356 16 18 303 173 167 169 196 203 182 169 188 199 225 212 196 199 198 188 177 169 170 171 167 164 166 162 158 161 159 156 157 153 150 150 150 149 149 150 150 149 148 150 154 151 147 155 159 150 140 138 140 139 145 146 143 144 145 146 145 150 159 154 160 167 158 160 165 164 168 170 172 163 158 154 143 143 142 152 159 148 163 176 172 176 174 168 160 150 129 114 148 198
34 282 339 349 34 66 130 219 206 179 174 209 206 171 175 186 181 269 275 228 210 204 195 179 171 177 174 166 165 167 164 160 162 161 159 160 156 154 154 154 153 153 154 154 154 154 154 156 154 155 160 157 149 142 143 147 147 147 147 146 146 148 152 149 152 159 153 162 169 157 160 164 163 167 163 161 162 161 145 133 154 155 161 181 174 172 172 165 164 168 172 162 154 167 209 200 179
351 51 278 293 76 91 123 169 205 186 161 225 197 172 218 182 163 251 263 262 250 242 233 194 175 183 178 168 167 167 167 164 163 163 163 162 160 159 158 158 157 157 157 158 159 157 157 160 159 159 161 156 151 149 148 151 150 147 147 149 148 149 152 151 155 157 154 166 166 155 159 157 159 165 154 154 163 158 142 136 150 158 167 176 177 171 162 168 171 162 170 176 169 174 187 177 165
126 137 260 299 131 172 3 177 195 183 169 164 147 172 235 224 218 235 228 245 245 255 267 234 183 186 185 172 168 170 172 168 165 167 167 165 163 164 163 161 160 160 161 162 163 160 162 169 165 163 163 158 158 157 151 153 152 146 148 150 148 152 153 146 150 148 144 157 159 154 158 155 158 161 149 155 166 155 151 149 144 145 155 156 153 153 151 160 169 161 174 184 181 184 178 161 173
139 156 244 272 183 176 63 143 161 159 205 147 136 171 197 199 216 214 187 232 233 248 268 245 193 191 193 176 169 174 176 170 169 170 169 167 166 167 167 166 164 164 165 165 166 164 167 173 170 168 166 161 166 161 153 160 159 150 153 154 150 157 157 148 151 154 156 166 167 156 158 159 160 160 159 167 172 165 158 158 158 150 141 138 134 135 140 146 162 170 189 186 185 196 187 172 173
163 172 185 240 165 91 103 143 135 149 214 180 160 191 198 193 208 205 174 185 227 255 261 231 197 193 199 187 171 175 178 173 175 173 171 171 169 169 169 170 169 168 169 169 169 168 171 175 172 172 168 165 173 165 160 172 167 156 159 160 158 161 162 156 157 165 173 180 174 160 164 165 160 156 164 175 180 173 167 168 164 145 136 141 139 139 149 156 155 160 193 188 181 186 180 173 170
211 161 171 211 84 98 139 158 158 202 195 165 176 211 211 181 194 195 180 179 193 229 246 223 202 190 197 199 176 175 180 177 181 177 173 174 173 172 172 174 174 172 172 170 170 171 174 176 174 175 172 170 177 173 172 179 172 164 162 162 163 164 166 163 159 166 177 185 183 168 167 166 165 169 167 175 187 176 168 171 162 148 144 144 146 153 151 152 158 165 196 198 183 183 178 172 177
264 132 156 193 121 113 150 166 198 267 67 145 196 220 245 212 195 184 181 193 188 200 226 219 207 193 194 200 184 179 181 179 182 179 176 177 176 175 175 177 177 174 174 172 172 173 176 180 177 177 176 175 180 180 179 179 175 172 165 162 167 165 172 173 162 164 173 190 198 170 172 172 167 177 186 199 210 180 174 180 166 159 151 140 153 176 163 163 184 194 207 204 188 190 198 195 188
128 131 148 183 160 135 144 158 275 346 359 248 213 216 237 244 197 176 177 201 201 197 206 208 210 204 196 198 191 183 181 182 183 182 181 179 178 178 176 178 178 175 176 174 173 173 177 182 180 179 180 179 183 182 179 178 180 180 168 167 175 164 172 182 168 166 173 186 192 174 182 190 179 188 199 212 224 195 184 185 171 168 163 156 165 190 196 184 210 236 215 202 197 199 204 201 197
111 106 112 207 210 153 141 132 88 37 308 263 241 224 234 241 185 177 180 200 207 201 199 200 209 213 204 199 196 187 182 184 185 184 185 182 180 180 178 179 179 176 176 174 174 172 176 182 181 182 183 183 185 183 181 182 185 188 177 173 176 164 171 188 178 179 181 178 185 186 186 184 187 202 204 207 212 200 192 180 176 176 173 178 178 188 208 199 228 243 210 198 203 208 210 205 204
96 84 279 237 223 182 158 127 111 143 247 245 259 242 240 256 171 178 190 201 201 198 201 198 201 210 209 203 201 192 184 186 188 186 184 183 182 181 181 181 179 176 175 173 174 172 175 182 181 183 184 184 186 184 184 187 187 192 187 178 177 170 174 189 186 190 194 184 185 197 197 188 190 195 199 211 213 201 195 183 183 184 178 195 202 199 208 202 208 228 206 197 211 219 223 220 218
87 246 263 251 222 208 217 160 153 238 260 234 277 255 240 250 179 194 215 208 198 202 203 191 195 205 203 201 203 198 188 187 190 188 183 184 185 183 183 182 179 177 174 173 175 173 176 182 181 184 184 183 187 186 185 189 189 191 191 185 182 177 175 186 190 193 200 197 189 192 206 208 202 197 200 213 216 208 212 205 195 196 191 201 214 213 212 207 212 227 210 204 219 222 226 231 229
222 249 247 250 239 219 233 215 189 260 288 71 52 13 238 249 300 286 225 198 204 224 215 193 195 200 195 194 202 201 192 190 192 190 184 183 185 185 185 183 180 178 176 176 176 174 177 181 183 186 185 184 190 190 186 189 190 191 194 193 191 184 179 185 195 198 201 203 191 188 210 217 206 204 209 218 215 202 219 228 210 204 208 213 219 218 217 215 222 229 218 220 239 234 230 236 232
217 234 229 236 249 243 252 239 183 265 241 129 112 115 201 257 316 335 302 198 197 236 231 202 189 193 194 194 200 206 200 192 193 193 186 183 185 185 184 183 181 180 178 178 178 177 178 181 185 188 186 186 192 192 189 191 192 192 195 197 198 195 189 189 197 200 203 206 193 188 210 225 218 211 208 220 217 196 217 236 220 212 218 220 224 223 221 222 228 233 224 228 246 242 235 240 234
217 222 225 239 251 254 267 262 257 300 218 129 132 156 240 267 310 337 329 327 2 359 301 245 190 199 205 201 201 211 213 200 194 195 190 185 186 185 183 183 181 181 180 179 180 179 179 183 187 189 188 189 193 194 192 194 194 194 197 198 199 203 201 199 200 200 201 209 206 197 206 213 217 225 217 217 218 206 223 243 234 224 227 226 229 228 228 227 227 231 228 229 243 249 249 251 242
240 204 211 240 257 260 255 263 316 325 256 125 135 195 67 95 341 338 322 324 350 1 343 331 289 221 207 203 201 204 214 209 196 195 194 187 185 185 185 184 183 183 182 180 182 180 181 188 190 191 192 193 195 196 195 198 197 196 198 198 199 205 209 207 209 209 202 204 210 211 216 211 205 216 217 211 213 210 218 232 236 234 234 233 233 233 237 239 233 230 231 234 240 247 255 259 255
313 249 227 237 256 272 257 242 293 302 269 297 329 254 131 129 340 344 327 325 342 353 344 334 313 263 210 202 201 198 209 212 197 194 194 186 184 186 187 187 186 186 184 181 183 180 182 190 191 192 195 194 197 198 197 200 201 198 201 201 199 204 210 210 213 218 210 207 213 213 218 223 215 211 209 212 220 221 219 222 225 234 240 238 237 239 241 244 244 237 235 241 244 240 243 254 259
258 269 277 290 253 265 285 243 239 259 254 273 355 280 121 129 281 329 347 331 334 354 347 332 312 282 234 209 205 201 208 217 210 199 192 186 185 186 188 190 188 186 184 184 187 184 183 188 188 190 193 192 196 200 200 203 203 200 203 206 202 201 209 210 210 218 216 213 220 218 215 224 225 220 217 217 223 232 236 230 223 223 231 238 242 243 240 241 247 246 242 248 252 247 245 254 262
248 244 99 51 261 247 266 241 245 257 246 77 41 23 128 163 191 142 116 311 313 343 323 315 304 260 235 218 214 208 205 213 221 198 187 187 189 189 189 190 189 187 185 186 187 184 184 186 185 188 191 190 193 196 198 203 203 201 203 209 207 201 205 208 207 214 217 216 222 223 220 222 224 226 228 222 218 227 241 244 239 230 229 238 246 246 244 243 247 250 252 256 257 257 256 258 265
252 258 135 185 246 244 249 244 254 262 214 121 25 16 214 193 170 126 150 216 265 335 279 296 339 283 246 224 218 214 199 197 199 190 179 184 189 191 191 192 192 190 188 188 186 184 185 188 187 189 189 188 191 192 195 198 200 201 203 208 212 208 206 207 209 213 216 218 221 223 225 225 224 226 230 229 224 223 229 241 250 245 232 236 245 249 247 246 250 253 255 255 253 256 262 263 267
243 251 204 215 206 210 241 246 246 248 135 123 125 311 297 133 133 134 147 204 304 353 304 331 10 311 273 246 220 214 189 187 191 205 196 179 183 190 193 197 197 192 189 190 188 187 189 190 190 188 186 187 190 191 194 197 199 204 206 207 213 216 213 210 212 217 219 222 224 225 227 229 228 227 228 235 237 230 227 234 248 251 237 229 237 244 244 247 254 256 256 256 249 251 258 260 263
308 278 269 276 254 231 243 244 241 237 151 151 165 218 317 85 121 106 84 26 301 290 282 54 42 324 283 288 268 170 100 173 188 211 231 182 180 186 190 197 198 191 187 187 189 191 192 190 189 187 184 186 191 190 189 192 195 200 207 209 212 220 222 218 217 220 222 224 227 229 230 234 236 232 228 236 240 234 230 230 237 246 244 235 237 240 241 248 256 257 258 260 257 256 257 255 257